QPF
0.04 0.06 0.06 0.05 0.05 0.04 0.05 0.05 0.05 0.03 0.02 0.02 0.01 0.00 0.00 0.01 0.01 0.00 0.01 0.01 0.00 0.00 0.01 0.01 0.02 0.03 0.04 0.04 0.03 0.03 0.03 0.03 0.03 0.04 0.05 0.06 0.07 0.07
0.04 0.05 0.05 0.05 0.05 0.04 0.04 0.06 0.05 0.04 0.02 0.01 0.01 0.00 0.00 0.00 0.01 0.01 0.01 0.01 0.00 0.01 0.01 0.01 0.02 0.04 0.04 0.04 0.03 0.02 0.02 0.02 0.02 0.02 0.02 0.03 0.04 0.05
0.04 0.05 0.05 0.05 0.04 0.04 0.04 0.05 0.04 0.03 0.02 0.01 0.01 0.01 0.01 0.01 0.01 0.01 0.00 0.01 0.01 0.01 0.01 0.01 0.02 0.03 0.03 0.03 0.03 0.03 0.02 0.02 0.01 0.01 0.01 0.01 0.02 0.04
0.05 0.06 0.06 0.05 0.04 0.04 0.04 0.03 0.04 0.04 0.03 0.02 0.02 0.01 0.02 0.01 0.02 0.02 0.01 0.01 0.01 0.01 0.01 0.01 0.01 0.01 0.02 0.03 0.03 0.02 0.02 0.02 0.01 0.01 0.01 0.01 0.01 0.02
0.05 0.06 0.06 0.07 0.05 0.05 0.04 0.03 0.03 0.02 0.02 0.02 0.01 0.02 0.01 0.01 0.02 0.01 0.01 0.01 0.01 0.01 0.01 0.01 0.01 0.01 0.02 0.02 0.02 0.02 0.02 0.02 0.02 0.02 0.02 0.01 0.01 0.02
0.05 0.06 0.06 0.07 0.06 0.06 0.05 0.05 0.04 0.03 0.03 0.03 0.02 0.02 0.03 0.03 0.02 0.01 0.01 0.01 0.01 0.01 0.01 0.01 0.01 0.01 0.02 0.01 0.01 0.01 0.02 0.01 0.01 0.01 0.01 0.01 0.01 0.02
0.08 0.06 0.05 0.05 0.06 0.06 0.05 0.06 0.05 0.05 0.04 0.04 0.04 0.03 0.03 0.04 0.02 0.01 0.01 0.01 0.01 0.01 0.01 0.01 0.01 0.01 0.02 0.02 0.02 0.02 0.02 0.02 0.03 0.03 0.03 0.02 0.02 0.02
0.06 0.05 0.04 0.04 0.04 0.05 0.05 0.05 0.06 0.06 0.06 0.06 0.05 0.04 0.04 0.04 0.03 0.02 0.02 0.02 0.01 0.01 0.02 0.02 0.02 0.02 0.03 0.02 0.03 0.04 0.04 0.04 0.03 0.03 0.02 0.02 0.02 0.02
0.09 0.09 0.08 0.07 0.07 0.07 0.07 0.09 0.08 0.06 0.06 0.07 0.06 0.05 0.05 0.05 0.04 0.03 0.03 0.03 0.03 0.03 0.03 0.02 0.03 0.03 0.03 0.02 0.02 0.02 0.02 0.02 0.02 0.02 0.02 0.01 0.01 0.01
0.08 0.07 0.07 0.08 0.09 0.10 0.10 0.11 0.10 0.08 0.06 0.05 0.04 0.04 0.04 0.06 0.04 0.04 0.04 0.04 0.03 0.04 0.04 0.03 0.03 0.03 0.03 0.02 0.02 0.02 0.02 0.02 0.02 0.02 0.02 0.02 0.01 0.01
0.07 0.07 0.07 0.08 0.08 0.09 0.08 0.06 0.05 0.04 0.03 0.03 0.03 0.02 0.03 0.03 0.03 0.03 0.04 0.03 0.03 0.04 0.04 0.04 0.04 0.04 0.03 0.02 0.02 0.02 0.02 0.02 0.02 0.03 0.03 0.02 0.02 0.01
0.07 0.07 0.06 0.05 0.04 0.04 0.04 0.03 0.03 0.04 0.05 0.04 0.04 0.04 0.03 0.03 0.04 0.03 0.04 0.04 0.04 0.04 0.03 0.04 0.04 0.05 0.04 0.02 0.02 0.02 0.02 0.02 0.03 0.03 0.02 0.02 0.01 0.02
0.04 0.04 0.03 0.03 0.03 0.02 0.02 0.02 0.02 0.03 0.05 0.06 0.07 0.06 0.06 0.07 0.06 0.05 0.03 0.04 0.04 0.03 0.03 0.04 0.04 0.04 0.04 0.02 0.02 0.02 0.01 0.01 0.02 0.02 0.03 0.02 0.02 0.02
0.05 0.07 0.07 0.05 0.04 0.03 0.02 0.02 0.02 0.03 0.04 0.05 0.05 0.06 0.07 0.07 0.06 0.05 0.05 0.05 0.04 0.03 0.03 0.03 0.03 0.04 0.04 0.03 0.02 0.01 0.01 0.01 0.01 0.01 0.02 0.02 0.02 0.02
0.04 0.04 0.04 0.04 0.03 0.03 0.02 0.02 0.02 0.02 0.02 0.03 0.03 0.05 0.06 0.07 0.07 0.07 0.07 0.07 0.09 0.07 0.04 0.03 0.03 0.03 0.04 0.04 0.03 0.02 0.02 0.02 0.02 0.02 0.02 0.02 0.01 0.02
0.03 0.03 0.03 0.03 0.02 0.02 0.03 0.03 0.03 0.04 0.04 0.03 0.03 0.03 0.04 0.05 0.06 0.06 0.07 0.08 0.09 0.09 0.07 0.05 0.05 0.05 0.05 0.05 0.04 0.04 0.04 0.03 0.03 0.03 0.03 0.03 0.03 0.02
0.03 0.03 0.03 0.04 0.04 0.04 0.05 0.06 0.06 0.05 0.04 0.03 0.02 0.02 0.02 0.03 0.02 0.02 0.03 0.04 0.05 0.06 0.08 0.09 0.08 0.07 0.07 0.06 0.05 0.04 0.04 0.04 0.03 0.04 0.04 0.04 0.04 0.04
0.04 0.03 0.04 0.05 0.06 0.06 0.06 0.05 0.04 0.03 0.03 0.02 0.02 0.01 0.01 0.02 0.02 0.02 0.02 0.02 0.03 0.04 0.05 0.05 0.07 0.08 0.08 0.07 0.06 0.06 0.05 0.04 0.05 0.05 0.04 0.04 0.04 0.04
0.05 0.04 0.04 0.04 0.04 0.04 0.04 0.04 0.03 0.03 0.03 0.02 0.01 0.01 0.01 0.01 0.01 0.01 0.02 0.02 0.02 0.02 0.03 0.03 0.04 0.06 0.09 0.09 0.08 0.06 0.07 0.07 0.06 0.07 0.06 0.04 0.04 0.04
0.05 0.04 0.04 0.04 0.04 0.04 0.04 0.04 0.03 0.03 0.03 0.02 0.02 0.01 0.01 0.01 0.01 0.01 0.01 0.01 0.02 0.02 0.02 0.02 0.02 0.03 0.05 0.06 0.05 0.03 0.03 0.05 0.06 0.06 0.06 0.05 0.04 0.04
0.06 0.06 0.06 0.06 0.06 0.04 0.03 0.04 0.04 0.04 0.03 0.03 0.02 0.03 0.02 0.01 0.01 0.02 0.01 0.01 0.01 0.01 0.01 0.02 0.02 0.02 0.03 0.03 0.03 0.02 0.03 0.04 0.04 0.03 0.04 0.04 0.04 0.04
0.05 0.06 0.08 0.08 0.08 0.06 0.03 0.04 0.04 0.04 0.03 0.03 0.03 0.03 0.02 0.02 0.01 0.01 0.01 0.01 0.01 0.01 0.01 0.02 0.02 0.01 0.02 0.02 0.02 0.02 0.03 0.04 0.05 0.04 0.04 0.04 0.05 0.06
0.04 0.06 0.07 0.08 0.08 0.06 0.04 0.04 0.04 0.03 0.03 0.03 0.03 0.03 0.03 0.03 0.02 0.02 0.02 0.02 0.02 0.01 0.01 0.01 0.01 0.02 0.01 0.01 0.01 0.01 0.02 0.03 0.04 0.04 0.03 0.04 0.04 0.03
MSLP
1015.59 1015.75 1015.90 1016.03 1016.13 1016.17 1016.14 1016.03 1015.85 1015.60 1015.29 1014.96 1014.64 1014.35 1014.12 1013.98 1013.91 1013.94 1014.03 1014.19 1014.36 1014.55 1014.73 1014.88 1015.01 1015.11 1015.19 1015.26 1015.35 1015.45 1015.58 1015.73 1015.92 1016.13 1016.36 1016.62 1016.91 1017.21
1014.74 1014.86 1014.99 1015.11 1015.22 1015.29 1015.31 1015.27 1015.16 1014.99 1014.76 1014.50 1014.22 1013.96 1013.74 1013.57 1013.47 1013.44 1013.47 1013.55 1013.67 1013.80 1013.93 1014.05 1014.16 1014.27 1014.39 1014.51 1014.65 1014.81 1015.00 1015.20 1015.43 1015.66 1015.90 1016.16 1016.42 1016.70
1013.88 1013.97 1014.06 1014.16 1014.26 1014.34 1014.39 1014.40 1014.36 1014.26 1014.12 1013.93 1013.72 1013.52 1013.32 1013.16 1013.05 1012.98 1012.96 1012.97 1013.01 1013.07 1013.14 1013.22 1013.31 1013.41 1013.54 1013.70 1013.89 1014.11 1014.35 1014.61 1014.87 1015.12 1015.37 1015.60 1015.84 1016.08
1013.01 1013.08 1013.14 1013.21 1013.29 1013.37 1013.44 1013.48 1013.49 1013.46 1013.39 1013.29 1013.16 1013.02 1012.88 1012.75 1012.64 1012.55 1012.48 1012.43 1012.40 1012.39 1012.38 1012.41 1012.45 1012.54 1012.67 1012.85 1013.07 1013.34 1013.63 1013.92 1014.22 1014.49 1014.73 1014.96 1015.16 1015.37
1012.14 1012.19 1012.23 1012.28 1012.34 1012.41 1012.48 1012.54 1012.59 1012.62 1012.62 1012.60 1012.55 1012.48 1012.40 1012.31 1012.22 1012.12 1012.02 1011.93 1011.83 1011.74 1011.67 1011.62 1011.62 1011.66 1011.77 1011.95 1012.19 1012.49 1012.81 1013.14 1013.46 1013.76 1014.02 1014.24 1014.43 1014.62
1011.24 1011.29 1011.33 1011.36 1011.41 1011.47 1011.54 1011.61 1011.69 1011.76 1011.82 1011.86 1011.88 1011.88 1011.85 1011.81 1011.75 1011.66 1011.55 1011.42 1011.27 1011.12 1010.98 1010.87 1010.80 1010.80 1010.88 1011.04 1011.28 1011.58 1011.92 1012.29 1012.64 1012.96 1013.25 1013.49 1013.70 1013.91
1010.32 1010.38 1010.43 1010.46 1010.51 1010.57 1010.64 1010.72 1010.81 1010.91 1011.00 1011.08 1011.15 1011.21 1011.23 1011.23 1011.20 1011.12 1011.02 1010.87 1010.70 1010.51 1010.32 1010.16 1010.04 1009.99 1010.03 1010.16 1010.38 1010.68 1011.03 1011.42 1011.80 1012.16 1012.49 1012.77 1013.03 1013.27
1009.41 1009.48 1009.54 1009.59 1009.64 1009.70 1009.78 1009.86 1009.96 1010.07 1010.18 1010.29 1010.38 1010.46 1010.52 1010.55 1010.55 1010.50 1010.40 1010.27 1010.09 1009.89 1009.69 1009.50 1009.35 1009.27 1009.27 1009.37 1009.57 1009.86 1010.21 1010.61 1011.02 1011.42 1011.80 1012.14 1012.46 1012.75
1008.53 1008.61 1008.68 1008.74 1008.81 1008.88 1008.96 1009.05 1009.15 1009.26 1009.36 1009.47 1009.57 1009.66 1009.73 1009.78 1009.80 1009.78 1009.72 1009.61 1009.47 1009.29 1009.10 1008.92 1008.77 1008.68 1008.67 1008.74 1008.92 1009.19 1009.53 1009.93 1010.36 1010.80 1011.22 1011.62 1012.00 1012.36
1007.71 1007.79 1007.85 1007.93 1008.00 1008.09 1008.18 1008.27 1008.37 1008.46 1008.56 1008.65 1008.73 1008.81 1008.88 1008.94 1008.98 1008.99 1008.97 1008.92 1008.84 1008.72 1008.59 1008.46 1008.34 1008.27 1008.26 1008.33 1008.49 1008.74 1009.06 1009.45 1009.87 1010.32 1010.77 1011.21 1011.63 1012.04
1006.97 1007.01 1007.07 1007.13 1007.22 1007.31 1007.40 1007.50 1007.59 1007.68 1007.76 1007.83 1007.89 1007.96 1008.02 1008.08 1008.14 1008.19 1008.23 1008.25 1008.25 1008.23 1008.18 1008.13 1008.08 1008.06 1008.08 1008.15 1008.29 1008.51 1008.80 1009.15 1009.55 1009.98 1010.43 1010.88 1011.32 1011.75
1006.28 1006.28 1006.29 1006.34 1006.42 1006.51 1006.61 1006.71 1006.81 1006.89 1006.96 1007.02 1007.07 1007.12 1007.18 1007.25 1007.34 1007.44 1007.54 1007.65 1007.75 1007.83 1007.89 1007.94 1007.98 1008.02 1008.08 1008.16 1008.29 1008.48 1008.72 1009.01 1009.36 1009.74 1010.15 1010.57 1010.99 1011.41
1005.65 1005.56 1005.52 1005.53 1005.58 1005.66 1005.77 1005.88 1005.99 1006.09 1006.17 1006.24 1006.30 1006.36 1006.43 1006.52 1006.64 1006.79 1006.97 1007.16 1007.35 1007.55 1007.72 1007.87 1008.00 1008.10 1008.20 1008.30 1008.42 1008.56 1008.74 1008.97 1009.24 1009.54 1009.88 1010.24 1010.61 1010.98
1005.03 1004.84 1004.72 1004.67 1004.69 1004.76 1004.88 1005.01 1005.15 1005.29 1005.40 1005.51 1005.60 1005.69 1005.80 1005.93 1006.10 1006.30 1006.54 1006.80 1007.08 1007.37 1007.63 1007.87 1008.07 1008.24 1008.37 1008.47 1008.57 1008.67 1008.79 1008.94 1009.12 1009.33 1009.58 1009.86 1010.16 1010.47
1004.44 1004.15 1003.93 1003.81 1003.79 1003.84 1003.96 1004.13 1004.31 1004.50 1004.68 1004.85 1005.01 1005.17 1005.33 1005.52 1005.73 1005.99 1006.28 1006.60 1006.94 1007.28 1007.61 1007.90 1008.15 1008.35 1008.50 1008.60 1008.67 1008.73 1008.79 1008.86 1008.96 1009.09 1009.25 1009.45 1009.67 1009.92
1003.94 1003.52 1003.22 1003.02 1002.95 1002.98 1003.11 1003.31 1003.55 1003.81 1004.08 1004.34 1004.58 1004.82 1005.06 1005.31 1005.58 1005.87 1006.20 1006.55 1006.91 1007.27 1007.61 1007.92 1008.18 1008.39 1008.53 1008.63 1008.68 1008.70 1008.71 1008.73 1008.76 1008.82 1008.92 1009.05 1009.21 1009.40
1003.60 1003.09 1002.69 1002.43 1002.31 1002.32 1002.45 1002.67 1002.97 1003.31 1003.66 1004.02 1004.37 1004.70 1005.02 1005.33 1005.64 1005.96 1006.30 1006.64 1006.99 1007.33 1007.64 1007.93 1008.16 1008.34 1008.47 1008.55 1008.58 1008.58 1008.56 1008.55 1008.55 1008.58 1008.63 1008.72 1008.85 1009.00
1003.57 1002.98 1002.52 1002.20 1002.03 1002.01 1002.14 1002.38 1002.72 1003.12 1003.55 1003.99 1004.43 1004.84 1005.22 1005.59 1005.93 1006.26 1006.57 1006.88 1007.18 1007.46 1007.71 1007.94 1008.12 1008.26 1008.35 1008.40 1008.42 1008.41 1008.40 1008.38 1008.38 1008.41 1008.45 1008.54 1008.65 1008.79
1003.96 1003.33 1002.82 1002.46 1002.25 1002.20 1002.31 1002.56 1002.91 1003.34 1003.82 1004.31 1004.80 1005.26 1005.69 1006.08 1006.42 1006.73 1007.01 1007.26 1007.48 1007.68 1007.85 1007.99 1008.11 1008.19 1008.24 1008.27 1008.28 1008.28 1008.28 1008.28 1008.31 1008.35 1008.42 1008.51 1008.63 1008.78
1004.82 1004.20 1003.68 1003.29 1003.06 1002.98 1003.06 1003.27 1003.61 1004.03 1004.50 1005.01 1005.50 1005.97 1006.40 1006.78 1007.10 1007.37 1007.59 1007.76 1007.90 1008.01 1008.09 1008.15 1008.19 1008.21 1008.22 1008.23 1008.23 1008.24 1008.26 1008.30 1008.36 1008.43 1008.53 1008.64 1008.77 1008.92
1006.15 1005.57 1005.08 1004.70 1004.44 1004.34 1004.37 1004.53 1004.81 1005.17 1005.60 1006.05 1006.51 1006.94 1007.33 1007.66 1007.93 1008.13 1008.28 1008.38 1008.43 1008.45 1008.45 1008.43 1008.40 1008.36 1008.34 1008.32 1008.32 1008.34 1008.38 1008.44 1008.52 1008.62 1008.74 1008.87 1009.00 1009.14
1007.84 1007.34 1006.91 1006.56 1006.30 1006.17 1006.15 1006.24 1006.43 1006.70 1007.03 1007.38 1007.75 1008.09 1008.40 1008.65 1008.84 1008.98 1009.05 1009.07 1009.05 1009.00 1008.92 1008.83 1008.75 1008.67 1008.61 1008.56 1008.55 1008.57 1008.61 1008.68 1008.77 1008.88 1008.99 1009.11 1009.23 1009.34
1009.70 1009.32 1008.98 1008.68 1008.44 1008.28 1008.21 1008.22 1008.31 1008.46 1008.66 1008.88 1009.12 1009.34 1009.53 1009.69 1009.79 1009.84 1009.85 1009.80 1009.72 1009.61 1009.48 1009.35 1009.22 1009.10 1009.00 1008.93 1008.89 1008.89 1008.91 1008.97 1009.04 1009.13 1009.22 1009.30 1009.38 1009.45
Thickness
5754 5753 5751 5752 5751 5749 5747 5744 5739 5735 5736 5739 5739 5739 5736 5733 5731 5729 5727 5725 5722 5721 5719 5718 5716 5714 5713 5712 5711 5709 5708 5706 5705 5704 5702 5701 5699 5698
5751 5751 5749 5750 5749 5747 5745 5743 5741 5736 5733 5737 5736 5736 5732 5730 5727 5725 5724 5721 5719 5718 5716 5715 5713 5711 5709 5708 5706 5705 5704 5702 5700 5699 5697 5696 5694 5693
5750 5749 5747 5746 5745 5745 5743 5741 5738 5736 5731 5733 5734 5731 5726 5723 5722 5720 5720 5719 5718 5715 5713 5711 5709 5707 5705 5704 5702 5700 5698 5697 5695 5693 5692 5690 5689 5688
5746 5745 5744 5743 5740 5740 5739 5737 5735 5733 5729 5725 5726 5725 5722 5719 5717 5715 5716 5717 5715 5712 5709 5707 5705 5703 5701 5699 5697 5695 5693 5692 5690 5688 5687 5686 5684 5683
5743 5741 5740 5738 5735 5736 5734 5734 5732 5730 5727 5723 5721 5720 5718 5716 5712 5711 5712 5710 5710 5709 5706 5703 5700 5698 5696 5693 5691 5690 5688 5686 5684 5683 5681 5680 5679 5678
5740 5738 5737 5735 5733 5731 5730 5727 5726 5723 5721 5718 5716 5714 5711 5709 5706 5705 5705 5706 5705 5705 5702 5699 5696 5693 5690 5688 5686 5684 5682 5680 5679 5677 5676 5675 5673 5673
5734 5733 5732 5730 5728 5726 5726 5723 5720 5717 5716 5713 5711 5708 5706 5701 5700 5701 5699 5700 5699 5699 5697 5695 5693 5690 5687 5683 5681 5678 5676 5675 5673 5672 5670 5669 5668 5667
5728 5727 5726 5724 5722 5719 5717 5714 5712 5710 5709 5707 5705 5702 5699 5698 5696 5694 5693 5692 5690 5692 5690 5688 5688 5685 5683 5680 5676 5673 5670 5668 5667 5665 5664 5663 5662 5661
5723 5721 5722 5722 5717 5715 5711 5707 5705 5703 5702 5700 5698 5697 5695 5694 5690 5688 5686 5685 5683 5685 5682 5681 5682 5679 5677 5675 5670 5667 5664 5662 5660 5658 5657 5656 5655 5654
5717 5715 5713 5711 5710 5707 5705 5703 5701 5699 5697 5694 5693 5692 5690 5687 5685 5683 5681 5678 5677 5677 5675 5673 5674 5673 5673 5669 5664 5661 5658 5655 5653 5651 5650 5649 5648 5647
5710 5708 5706 5704 5700 5697 5696 5694 5693 5691 5689 5686 5684 5682 5680 5677 5676 5676 5674 5673 5671 5671 5670 5667 5667 5665 5664 5663 5659 5654 5652 5649 5647 5645 5644 5642 5641 5641
5702 5700 5697 5695 5690 5688 5688 5687 5684 5683 5681 5680 5676 5674 5673 5671 5668 5667 5668 5666 5665 5663 5663 5660 5659 5657 5656 5657 5654 5650 5647 5644 5641 5639 5638 5636 5635 5635
5696 5694 5691 5685 5682 5679 5679 5679 5677 5674 5672 5671 5670 5668 5667 5664 5662 5660 5659 5658 5657 5656 5656 5652 5651 5650 5649 5648 5647 5645 5643 5640 5637 5634 5631 5629 5628 5628
5688 5687 5682 5676 5673 5670 5669 5668 5666 5664 5665 5665 5663 5660 5659 5657 5655 5653 5651 5650 5648 5647 5646 5644 5643 5641 5640 5638 5638 5638 5636 5634 5632 5630 5628 5624 5622 5621
5680 5676 5672 5667 5665 5663 5660 5658 5657 5658 5658 5657 5655 5653 5651 5649 5647 5644 5642 5640 5639 5639 5637 5635 5634 5633 5632 5631 5630 5629 5627 5627 5626 5624 5621 5619 5618 5616
5669 5665 5661 5658 5657 5655 5654 5652 5651 5650 5650 5649 5647 5645 5643 5641 5639 5639 5636 5635 5634 5633 5630 5627 5626 5624 5624 5623 5622 5621 5620 5619 5617 5616 5614 5613 5612 5611
5657 5657 5656 5655 5652 5650 5649 5647 5645 5643 5641 5640 5639 5638 5636 5634 5633 5631 5629 5628 5627 5625 5623 5621 5619 5617 5616 5615 5614 5614 5612 5611 5609 5607 5604 5605 5605 5605
5647 5649 5648 5647 5645 5643 5641 5639 5637 5635 5633 5632 5631 5630 5629 5628 5626 5625 5623 5621 5619 5617 5615 5614 5612 5611 5609 5609 5605 5606 5605 5604 5602 5599 5598 5598 5598 5597
5639 5641 5640 5639 5637 5636 5634 5632 5629 5627 5625 5624 5623 5623 5621 5619 5618 5616 5615 5613 5611 5610 5609 5608 5606 5603 5601 5601 5601 5597 5596 5596 5594 5593 5592 5591 5590 5590
5634 5633 5632 5631 5629 5627 5626 5624 5622 5620 5618 5616 5615 5614 5612 5610 5609 5608 5606 5604 5604 5603 5601 5600 5598 5596 5595 5594 5594 5592 5588 5588 5587 5585 5584 5584 5583 5582
5627 5626 5625 5624 5622 5621 5619 5616 5614 5612 5610 5609 5607 5605 5604 5602 5601 5600 5599 5596 5595 5596 5594 5593 5591 5588 5588 5588 5587 5587 5585 5580 5579 5578 5578 5578 5578 5578
5619 5618 5616 5615 5614 5612 5610 5608 5607 5606 5604 5603 5601 5599 5598 5596 5595 5593 5592 5592 5590 5589 5588 5587 5585 5584 5583 5582 5581 5581 5580 5577 5573 5570 5569 5569 5570 5571
5610 5608 5607 5606 5605 5604 5602 5600 5599 5599 5598 5596 5595 5593 5591 5590 5589 5588 5586 5585 5584 5583 5582 5580 5579 5578 5578 5577 5576 5575 5574 5572 5571 5568 5566 5563 5561 5559